Date String (YYYY-MM-DD hh:mm:ss) UTC,Instrument flags,Ambient pressure (hPa),Sample flow (lpm),Bypass flow (lpm),Sample temperature (°C),Ambient temperature (°C),ASC tube jacket temperature (°C),LED temperature (°C),Box temperature (°C),Sample RH (%),Span deviation,Mass concentration (μg/m³),Mass concentration (μg/m³),Mass concentration (μg/m³)
DateTimeUTC,F1_M11,P_M11,Q1_M11,Q2_M11,T1_M11,T2_M11,T3_M11,T4_M11,T5_M11,U1_M11,ZSPAN_M11,X2_M11,X0_M11,X1_M11
2021-09-04 06:00:00,,0830.6,5.01,0.00,29.9,29.0,00.0,38.9,31.7,33.7,-000.6,0009.21,0019.04,0008.42
2021-09-04 06:01:00,,0830.6,5.00,0.00,29.9,29.0,00.0,38.9,31.7,33.7,-000.7,0009.28,0019.36,0008.46
2021-09-04 06:02:00,,0830.6,5.00,0.00,29.9,29.1,00.0,38.9,31.7,33.7,-000.8,0009.32,0019.31,0008.51
2021-09-04 06:03:00,,0830.6,5.00,0.00,30.0,29.1,00.0,38.9,31.8,33.6,-000.8,0009.34,0018.62,0008.53
2021-09-04 06:04:00,,0830.6,5.01,0.00,30.0,29.1,00.0,39.0,31.8,33.6,-000.5,0009.41,0017.37,0008.56
2021-09-04 06:05:00,,0830.6,5.01,0.00,30.0,29.2,00.0,39.0,31.8,33.5,-000.6,0009.46,0017.50,0008.58
2021-09-04 06:06:00,,0830.6,4.99,0.00,30.0,29.2,00.0,39.0,31.8,33.5,-000.7,0009.49,0017.31,0008.61
2021-09-04 06:07:00,,0830.6,5.00,0.00,30.1,29.2,00.0,39.0,31.9,33.5,-000.5,0009.48,0016.33,0008.65
2021-09-04 06:08:00,,0830.6,5.00,0.00,30.0,28.3,00.0,39.0,31.6,33.5,-000.7,0009.50,0016.19,0008.66
2021-09-04 06:09:00,,0830.6,5.00,0.00,29.9,26.5,00.0,39.0,31.2,33.9,-000.7,0009.52,0016.34,0008.67
2021-09-04 06:10:00,,0830.6,5.00,0.00,29.8,26.1,00.0,39.0,31.1,34.2,-000.7,0009.56,0016.50,0008.68
2021-09-04 06:11:00,,0830.6,5.01,0.00,29.6,26.5,00.0,38.9,31.0,34.3,-000.8,0009.55,0016.43,0008.68
2021-09-04 06:12:00,,0830.6,4.99,0.00,29.6,26.9,00.0,38.9,31.1,34.4,-000.9,0009.57,0016.80,0008.68
2021-09-04 06:13:00,,0830.7,5.00,0.00,29.6,27.3,00.0,38.9,31.2,34.4,-001.0,0009.54,0016.89,0008.65
2021-09-04 06:14:00,,0830.8,4.99,0.00,29.6,27.6,00.0,38.8,31.2,34.4,-001.0,0009.52,0017.00,0008.64
2021-09-04 06:15:00,,0830.8,5.01,0.00,29.6,27.9,00.0,38.8,31.3,34.5,-001.2,0009.49,0016.39,0008.63
2021-09-04 06:16:00,,0830.8,4.99,0.00,29.6,28.0,00.0,38.8,31.4,34.5,-001.3,0009.43,0016.40,0008.63
2021-09-04 06:17:00,,0830.7,5.00,0.00,29.6,28.2,00.0,38.8,31.4,34.4,-001.2,0009.43,0016.58,0008.62
2021-09-04 06:18:00,,0830.7,5.01,0.00,29.6,28.3,00.0,38.8,31.4,34.3,-001.3,0009.44,0016.69,0008.62
2021-09-04 06:19:00,,0830.7,4.99,0.00,29.7,28.5,00.0,38.8,31.4,34.3,-001.3,0009.41,0016.57,0008.62
2021-09-04 06:20:00,,0830.7,4.99,0.00,29.7,28.6,00.0,38.8,31.5,34.3,-001.2,0009.41,0016.06,0008.62
2021-09-04 06:21:00,,0830.8,5.01,0.00,29.7,28.7,00.0,38.8,31.5,34.3,-001.2,0009.40,0015.94,0008.63
2021-09-04 06:22:00,,0830.8,5.01,0.00,29.7,28.7,00.0,38.8,31.5,34.3,-001.3,0009.38,0015.63,0008.62
2021-09-04 06:23:00,,0830.8,5.00,0.00,29.7,28.8,00.0,38.8,31.5,34.3,-001.3,0009.35,0015.01,0008.62
2021-09-04 06:24:00,,0830.7,4.98,0.00,29.8,28.8,00.0,38.9,31.6,34.2,-001.1,0009.32,0014.86,0008.62
2021-09-04 06:25:00,,0830.8,5.01,0.00,29.8,28.9,00.0,38.9,31.6,34.3,-001.1,0009.36,0015.21,0008.62
2021-09-04 06:26:00,,0830.8,5.01,0.00,29.8,28.9,00.0,38.9,31.7,34.3,-001.2,0009.38,0014.75,0008.64
2021-09-04 06:27:00,,0830.8,5.00,0.00,29.8,28.9,00.0,38.9,31.7,34.2,-001.2,0009.39,0014.61,0008.64
2021-09-04 06:28:00,,0830.7,4.99,0.00,29.9,29.0,00.0,38.9,31.7,34.2,-001.1,0009.41,0014.68,0008.65
2021-09-04 06:29:00,,0830.7,5.00,0.00,29.9,29.0,00.0,38.9,31.7,34.2,-001.2,0009.41,0014.88,0008.66
2021-09-04 06:30:00,,0830.7,5.00,0.00,29.9,29.0,00.0,39.0,31.7,34.2,-001.3,0009.41,0015.25,0008.67
2021-09-04 06:31:00,,0830.7,5.00,0.00,29.9,29.1,00.0,39.0,31.8,34.2,-001.3,0009.39,0015.35,0008.66
2021-09-04 06:32:00,,0830.7,5.00,0.00,29.9,29.1,00.0,39.0,31.7,34.2,-001.2,0009.37,0015.35,0008.64
2021-09-04 06:33:00,,0830.6,4.99,0.00,30.0,29.2,00.0,39.0,31.8,34.1,-001.0,0009.36,0015.38,0008.64
2021-09-04 06:34:00,,0830.6,4.99,0.00,30.0,29.2,00.0,39.0,31.8,34.1,-000.8,0009.34,0015.41,0008.64
2021-09-04 06:35:00,,0830.6,5.02,0.00,30.0,29.2,00.0,39.0,31.9,34.0,-000.9,0009.37,0015.27,0008.65
2021-09-04 06:36:00,,0830.6,5.00,0.00,30.0,29.2,00.0,39.1,31.9,34.0,-000.9,0009.36,0014.91,0008.65
2021-09-04 06:37:00,,0830.6,5.01,0.00,30.0,29.2,00.0,39.1,31.9,33.9,-000.9,0009.31,0015.31,0008.64
2021-09-04 06:38:00,,0830.6,4.99,0.00,30.0,29.2,00.0,39.1,31.9,34.0,-000.8,0009.33,0015.24,0008.66
2021-09-04 06:39:00,,0830.6,5.01,0.00,30.0,28.9,00.0,39.1,31.8,34.1,-000.9,0009.31,0014.85,0008.66
2021-09-04 06:40:00,,0830.6,4.99,0.00,30.0,27.1,00.0,39.1,31.3,34.3,-001.2,0009.36,0014.55,0008.67
2021-09-04 06:41:00,,0830.6,5.00,0.00,29.8,26.2,00.0,39.0,31.1,34.6,-001.1,0009.38,0014.48,0008.67
2021-09-04 06:42:00,,0830.6,5.00,0.00,29.7,26.3,00.0,39.0,31.0,34.8,-001.2,0009.44,0014.51,0008.69
2021-09-04 06:43:00,,0830.7,4.99,0.00,29.6,26.7,00.0,38.9,31.0,34.9,-001.3,0009.44,0014.59,0008.70
2021-09-04 06:44:00,,0830.6,5.00,0.00,29.6,27.1,00.0,38.9,31.1,35.0,-001.2,0009.45,0015.41,0008.71
2021-09-04 06:45:00,,0830.7,5.00,0.00,29.6,27.5,00.0,38.8,31.2,34.9,-001.0,0009.43,0016.21,0008.71
2021-09-04 06:46:00,,0830.7,4.99,0.00,29.6,27.8,00.0,38.8,31.2,34.9,-000.9,0009.43,0016.73,0008.70
2021-09-04 06:47:00,,0830.8,5.01,0.00,29.6,28.0,00.0,38.8,31.3,34.9,-000.8,0009.45,0017.07,0008.71
2021-09-04 06:48:00,,0830.8,4.99,0.00,29.6,28.2,00.0,38.8,31.3,34.9,-000.8,0009.46,0017.04,0008.72
2021-09-04 06:49:00,,0830.8,4.99,0.00,29.6,28.3,00.0,38.8,31.4,34.9,-000.8,0009.46,0017.14,0008.70
2021-09-04 06:50:00,,0830.8,5.00,0.00,29.7,28.4,00.0,38.8,31.4,34.8,-000.8,0009.48,0017.26,0008.68
2021-09-04 06:51:00,,0830.8,5.00,0.00,29.7,28.5,00.0,38.8,31.4,34.8,-000.5,0009.46,0017.52,0008.67
2021-09-04 06:52:00,,0830.8,5.01,0.00,29.7,28.6,00.0,38.8,31.5,34.8,-000.6,0009.46,0017.37,0008.66
2021-09-04 06:53:00,,0830.7,4.99,0.00,29.7,28.7,00.0,38.8,31.5,34.7,-000.5,0009.42,0017.23,0008.65
2021-09-04 06:54:00,,0830.7,5.00,0.00,29.8,28.8,00.0,38.8,31.5,34.6,-000.6,0009.42,0017.13,0008.66
2021-09-04 06:55:00,,0830.6,5.00,0.00,29.8,28.8,00.0,38.8,31.6,34.6,-000.8,0009.47,0016.99,0008.68
2021-09-04 06:56:00,,0830.6,5.01,0.00,29.8,28.9,00.0,38.9,31.6,34.5,-001.3,0009.55,0016.62,0008.72
2021-09-04 06:57:00,,0830.6,5.00,0.00,29.8,28.9,00.0,38.9,31.7,34.5,-001.5,0009.58,0016.26,0008.74
2021-09-04 06:58:00,,0830.6,5.00,0.00,29.9,28.9,00.0,38.9,31.7,34.4,-001.4,0009.57,0015.94,0008.74
2021-09-04 06:59:00,,0830.6,5.01,0.00,29.9,28.9,00.0,38.9,31.7,34.4,-001.4,0009.60,0015.47,0008.73
